GW2844 Weather Reports


time (UTC)temp
C
wind
direction
speed
KPH
gust
KPH
rain 1hr
cm
rain 24hr
cm
rain mn
cm
humidity
%
barometer
mb
20260503223901 26 39 6.4 6.4 0.00 0.00 0.00 36 1011.3
20260503223359 25 258 6.4 8.0 0.00 0.00 0.00 39 1011.6
20260503222853 26 331 8.0 9.7 0.00 0.00 0.00 39 1011.3
20260503222352 26 66 1.6 1.6 0.00 0.00 0.00 38 1011.6
20260503221850 26 306 9.7 11.3 0.00 0.00 0.00 37 1011.6
20260503221349 25 349 8.0 9.7 0.00 0.00 0.00 39 1011.6
20260503220844 25 306 11.3 12.9 0.00 0.00 0.00 40 1012.0
20260503220341 25 310 6.4 8.0 0.00 0.00 0.00 40 1012.0
20260503215838 26 78 3.2 3.2 0.00 0.00 0.00 39 1011.6
20260503215336 26 37 6.4 6.4 0.00 0.00 0.00 36 1012.0
20260503214833 25 34 4.8 4.8 0.00 0.00 0.00 39 1012.0
20260503214330 25 318 6.4 6.4 0.00 0.00 0.00 40 1012.3
20260503213827 25 278 6.4 6.4 0.00 0.00 0.00 38 1012.3
20260503213325 25 24 4.8 4.8 0.00 0.00 0.00 38 1012.3
20260503212822 25 277 6.4 6.4 0.00 0.00 0.00 43 1012.0
20260503212320 25 24 3.2 3.2 0.00 0.00 0.00 40 1012.3
20260503211817 26 49 4.8 6.4 0.00 0.00 0.00 38 1012.7
20260503211314 25 48 4.8 4.8 0.00 0.00 0.00 42 1012.3
20260503210813 25 65 3.2 3.2 0.00 0.00 0.00 39 1012.3
20260503210311 25 78 4.8 4.8 0.00 0.00 0.00 39 1012.7
20260503205806 26 48 4.8 4.8 0.00 0.00 0.00 40 1012.7
20260503205304 25 34 3.2 3.2 0.00 0.00 0.00 41 1012.7
20260503204759 25 6 4.8 4.8 0.00 0.00 0.00 40 1012.7
20260503204257 25 312 3.2 3.2 0.00 0.00 0.00 42 1012.7
20260503203754 24 343 4.8 4.8 0.00 0.00 0.00 44 1012.7
20260503203251 24 78 3.2 3.2 0.00 0.00 0.00 42 1013.0
20260503202748 23 329 4.8 6.4 0.00 0.00 0.00 46 1013.0
20260503202246 25 336 1.6 1.6 0.00 0.00 0.00 45 1013.0
20260503201744 25 277 6.4 6.4 0.00 0.00 0.00 45 1013.0
20260503201241 24 274 0.0 0.0 0.00 0.00 0.00 43 1013.0
20260503200737 23 318 8.0 8.0 0.00 0.00 0.00 47 1013.0
20260503200234 23 19 6.4 6.4 0.00 0.00 0.00 47 1013.3
20260503195731 23 294 8.0 9.7 0.00 0.00 0.00 48 1013.3
20260503195228 23 327 6.4 6.4 0.00 0.00 0.00 48 1013.3
20260503194726 23 310 11.3 11.3 0.00 0.00 0.00 48 1013.3
20260503194221 23 271 8.0 9.7 0.00 0.00 0.00 48 1013.3
20260503193717 23 30 3.2 3.2 0.00 0.00 0.00 50 1013.7
20260503193213 23 275 3.2 3.2 0.00 0.00 0.00 48 1013.3
20260503192709 23 82 8.0 9.7 0.00 0.00 0.00 46 1013.7
20260503192204 23 258 4.8 4.8 0.00 0.00 0.00 49 1013.7
20260503191701 23 40 9.7 9.7 0.00 0.00 0.00 48 1013.3
20260503191158 22 24 3.2 3.2 0.00 0.00 0.00 52 1013.7
20260503190655 23 300 6.4 8.0 0.00 0.00 0.00 52 1014.0
20260503190152 23 299 6.4 6.4 0.00 0.00 0.00 51 1014.0
20260503185649 22 72 0.0 0.0 0.00 0.00 0.00 49 1013.7
20260503185144 22 30 3.2 3.2 0.00 0.00 0.00 54 1014.0
20260503184639 23 29 9.7 9.7 0.00 0.00 0.00 49 1014.0
20260503184136 22 60 4.8 6.4 0.00 0.00 0.00 49 1014.0
20260503183632 21 34 8.0 8.0 0.00 0.00 0.00 53 1014.0
20260503183130 21 355 12.9 14.5 0.00 0.00 0.00 53 1014.0
20260503182628 22 348 4.8 4.8 0.00 0.00 0.00 52 1014.0
20260503182126 21 82 3.2 3.2 0.00 0.00 0.00 49 1014.4
20260503181623 21 328 4.8 4.8 0.00 0.00 0.00 53 1014.4
20260503181120 21 344 4.8 4.8 0.00 0.00 0.00 53 1014.4
20260503180617 21 29 3.2 3.2 0.00 0.00 0.00 54 1014.4
20260503180115 21 324 8.0 8.0 0.00 0.00 0.00 54 1014.4
20260503175611 21 34 1.6 1.6 0.00 0.00 0.00 53 1014.4
20260503175108 21 23 3.2 3.2 0.00 0.00 0.00 52 1014.4
20260503174605 20 2 4.8 6.4 0.00 0.00 0.00 55 1014.4
20260503174102 20 72 3.2 3.2 0.00 0.00 0.00 54 1014.4
20260503173557 20 311 6.4 8.0 0.00 0.00 0.00 57 1014.4
20260503173054 20 30 8.0 9.7 0.00 0.00 0.00 56 1014.7
20260503172551 20 328 3.2 3.2 0.00 0.00 0.00 58 1014.4
20260503172048 19 336 4.8 6.4 0.00 0.00 0.00 58 1014.7
20260503171544 19 19 6.4 6.4 0.00 0.00 0.00 59 1014.7
20260503171042 20 302 6.4 6.4 0.00 0.00 0.00 59 1014.7
20260503170538 20 72 4.8 6.4 0.00 0.00 0.00 56 1014.7
20260503150924 17 318 3.2 3.2 0.00 0.00 0.00 67 1014.7
20260503150421 16 96 1.6 1.6 0.00 0.00 0.00 66 1014.7
20260503131314 9 186 0.0 0.0 0.00 0.00 0.00 88 1014.4
20260503130812 9 186 0.0 0.0 0.00 0.00 0.00 88 1014.4
20260503130309 9 186 0.0 0.0 0.00 0.00 0.00 87 1014.7
20260503110702 10 186 0.0 0.0 0.00 0.00 0.00 83 1014.7
20260503110200 10 186 0.0 0.0 0.00 0.00 0.00 84 1014.7
20260503100126 11 186 0.0 0.0 0.00 0.00 0.00 80 1014.7
20260503081510 14 186 0.0 0.0 0.00 0.00 0.00 67 1015.0
20260503081007 13 186 0.0 0.0 0.00 0.00 0.00 67 1014.7
20260503080503 13 186 0.0 0.0 0.00 0.00 0.00 72 1014.7
20260503072940 14 60 0.0 0.0 0.00 0.00 0.00 68 1015.0
20260503072437 14 60 0.0 0.0 0.00 0.00 0.00 69 1015.0
20260503071934 14 60 0.0 0.0 0.00 0.00 0.00 69 1014.7
20260503071431 14 60 0.0 0.0 0.00 0.00 0.00 69 1014.7
20260503070927 13 60 0.0 0.0 0.00 0.00 0.00 71 1015.0
20260503070424 13 60 0.0 0.0 0.00 0.00 0.00 71 1014.7
20260503054832 14 60 0.0 0.0 0.00 0.00 0.00 74 1014.7
20260503054328 14 60 0.0 0.0 0.00 0.00 0.00 74 1014.7
20260503053826 15 60 0.0 0.0 0.00 0.00 0.00 73 1014.7
20260503053324 15 60 0.0 0.0 0.00 0.00 0.00 72 1014.7
20260503052820 15 60 0.0 0.0 0.00 0.00 0.00 70 1014.7
20260503052317 16 60 0.0 0.0 0.00 0.00 0.00 69 1014.7
20260503051813 16 60 0.0 0.0 0.00 0.00 0.00 68 1014.7
20260503051309 16 60 3.2 3.2 0.00 0.00 0.00 68 1014.7
20260503050806 16 60 0.0 0.0 0.00 0.00 0.00 67 1014.4
20260503050303 16 60 0.0 0.0 0.00 0.00 0.00 66 1014.4
20260503045801 16 60 0.0 0.0 0.00 0.00 0.00 65 1014.4
20260503045258 17 60 0.0 0.0 0.00 0.00 0.00 66 1014.4
20260503044754 17 60 3.2 3.2 0.00 0.00 0.00 65 1014.4
20260503044251 17 60 0.0 0.0 0.00 0.00 0.00 65 1014.4
20260503043748 17 60 0.0 0.0 0.00 0.00 0.00 64 1014.4
20260503043245 17 32 0.0 0.0 0.00 0.00 0.00 62 1014.4
20260503042741 17 32 3.2 3.2 0.00 0.00 0.00 62 1014.0
20260503042238 17 32 1.6 1.6 0.00 0.00 0.00 61 1014.0
20260503041734 17 32 3.2 3.2 0.00 0.00 0.00 60 1014.0
20260503041232 18 32 3.2 3.2 0.00 0.00 0.00 58 1014.4
20260503040729 18 36 0.0 0.0 0.00 0.00 0.00 59 1014.0
20260503040227 18 36 0.0 0.0 0.00 0.00 0.00 58 1014.0
20260503035723 18 24 0.0 0.0 0.00 0.00 0.00 56 1013.7
20260503035221 19 54 4.8 4.8 0.00 0.00 0.00 54 1013.7
20260503034718 19 8 3.2 3.2 0.00 0.00 0.00 52 1014.0
20260503034215 20 70 3.2 3.2 0.00 0.00 0.00 50 1013.3
20260503033712 20 60 9.7 9.7 0.00 0.00 0.00 48 1013.7
20260503033210 20 29 8.0 9.7 0.00 0.00 0.00 48 1013.3
20260503032708 20 36 4.8 4.8 0.00 0.00 0.00 49 1013.3
20260503032206 20 48 4.8 4.8 0.00 0.00 0.00 48 1013.3
20260503031703 20 54 11.3 11.3 0.00 0.00 0.00 49 1013.3
20260503031201 20 6 4.8 4.8 0.00 0.00 0.00 50 1013.3
20260503030656 20 355 11.3 11.3 0.00 0.00 0.00 50 1013.3
20260503030153 20 303 11.3 11.3 0.00 0.00 0.00 50 1013.0
20260503025650 20 318 12.9 12.9 0.00 0.00 0.00 49 1013.0
20260503025148 20 280 8.0 9.7 0.00 0.00 0.00 49 1013.0
20260503024644 20 6 8.0 9.7 0.00 0.00 0.00 48 1013.0
20260503024141 20 300 17.7 19.3 0.00 0.00 0.00 48 1013.3
20260503023633 21 314 6.4 6.4 0.00 0.00 0.00 48 1013.0
20260503023130 21 23 8.0 9.7 0.00 0.00 0.00 47 1013.0
20260503022626 21 100 8.0 8.0 0.00 0.00 0.00 48 1013.0
20260503022120 21 60 9.7 11.3 0.00 0.00 0.00 47 1013.0
20260503021618 21 316 8.0 9.7 0.00 0.00 0.00 47 1013.0
20260503021114 21 328 3.2 3.2 0.00 0.00 0.00 47 1013.0
20260503020611 21 6 8.0 9.7 0.00 0.00 0.00 46 1013.0
20260503020109 21 324 8.0 8.0 0.00 0.00 0.00 47 1013.0
20260503015605 21 329 6.4 8.0 0.00 0.00 0.00 47 1013.0
20260503015103 21 30 8.0 9.7 0.00 0.00 0.00 47 1013.0
20260503014558 21 343 8.0 9.7 0.00 0.00 0.00 47 1013.0
20260503014056 22 35 3.2 3.2 0.00 0.00 0.00 46 1013.0
20260503013553 22 0 0.0 0.0 0.00 0.00 0.00 48 1013.0
20260503013051 22 12 3.2 3.2 0.00 0.00 0.00 47 1013.3
20260503012548 22 49 3.2 3.2 0.00 0.00 0.00 47 1013.0
20260503012045 22 93 0.0 0.0 0.00 0.00 0.00 47 1013.0
20260503011541 22 66 8.0 8.0 0.00 0.00 0.00 47 1013.3
20260503011039 22 54 3.2 3.2 0.00 0.00 0.00 47 1013.0
20260503010534 22 294 6.4 6.4 0.00 0.00 0.00 47 1013.3
20260503010032 22 318 3.2 3.2 0.00 0.00 0.00 47 1013.3
20260503005529 23 90 6.4 6.4 0.00 0.00 0.00 46 1013.3
20260503005027 22 331 8.0 8.0 0.00 0.00 0.00 47 1013.3
20260503004522 22 18 4.8 6.4 0.00 0.00 0.00 47 1013.7
20260503004021 23 18 8.0 8.0 0.00 0.00 0.00 45 1013.3
20260503003517 23 72 3.2 3.2 0.00 0.00 0.00 46 1013.7
20260503003014 23 71 3.2 3.2 0.00 0.00 0.00 45 1013.3
20260503002511 23 90 0.0 0.0 0.00 0.00 0.00 45 1013.7
20260503002008 24 71 3.2 3.2 0.00 0.00 0.00 44 1013.3
20260503001504 23 35 3.2 3.2 0.00 0.00 0.00 45 1013.3
20260503001002 23 38 6.4 6.4 0.00 0.00 0.00 45 1013.7
20260503000459 23 35 9.7 11.3 0.00 0.00 0.00 46 1013.7
20260502235956 23 30 3.2 3.2 0.00 0.00 0.00 47 1013.7
20260502235453 23 48 1.6 1.6 0.00 0.00 0.00 47 1013.7
20260502234950 23 54 3.2 3.2 0.00 0.00 0.00 47 1014.0
20260502234446 22 65 4.8 4.8 0.00 0.00 0.00 48 1013.7
20260502233944 22 24 3.2 3.2 0.00 0.00 0.00 49 1014.0
20260502233439 22 17 6.4 8.0 0.00 0.00 0.00 48 1014.0
20260502232936 21 323 6.4 6.4 0.00 0.00 0.00 49 1014.0
20260502232432 22 300 8.0 8.0 0.00 0.00 0.00 47 1014.0
20260502231929 22 324 4.8 6.4 0.00 0.00 0.00 47 1014.4
20260502231426 22 309 9.7 11.3 0.00 0.00 0.00 47 1014.4
20260502230925 22 332 8.0 9.7 0.00 0.00 0.00 44 1014.4
20260502230422 22 342 14.5 16.1 0.00 0.00 0.00 46 1014.4
20260502225921 22 24 12.9 14.5 0.00 0.00 0.00 45 1014.7
20260502225416 22 324 11.3 11.3 0.00 0.00 0.00 45 1014.7
20260502224913 22 342 6.4 6.4 0.00 0.00 0.00 45 1014.7
20260502224408 22 354 9.7 9.7 0.00 0.00 0.00 46 1015.0